Regional Weather Roundup
Issued by NWS

Home | Current Version | Previous Version | Graphics & Text | Print | Product List | Glossary On
Versions: 1 2 3 4 5 6 7 8 9 10 11 12 13 14 15 16 17 18 19 20 21 22 23 24 25 26 27 28 29 30 31 32 33 34 35 36 37 38 39 40 41 42 43 44 45 46 47 48 49 50
000
ASUS45 KBOU 272107
RWRCO

WEATHER ROUNDUP FOR COLORADO
NATIONAL WEATHER SERVICE DENVER/BOULDER CO
300 PM MDT WED AUG 27 2014

NOTE: "FAIR" INDICATES FEW OR NO CLOUDS BELOW 12000 FEET WITH NO
SIGNIFICANT WEATHER AND/OR OBSTRUCTIONS TO VISIBILITY.

COZ001>005-013-030-031-272200-
...NORTHWEST COLORADO...

CITY           SKY/WX    TMP DP  RH WIND       PRES   REMARKS
CRAIG          TSTM      51  46  83 CALM      30.29R
HAYDEN         PTSUNNY   57  48  72 N12       30.27F THUNDER
MEEKER         CLOUDY    60  46  59 W6        30.29F
MOUNT WERNER   NOT AVBL
STEAMBOAT SPGS PTSUNNY   62  49  63 SE3       30.28F
WALDEN         CLOUDY    54  43  66 S10G18    30.35S
$$

COZ006>008-011-272200-
...WEST CENTRAL VALLEYS...

CITY           SKY/WX    TMP DP  RH WIND       PRES   REMARKS
GRAND JUNCTION PTSUNNY   69  54  58 NW9       30.21F
MONTROSE       CLOUDY    68  44  42 W16G23    30.26S THUNDER
EAGLE          PTSUNNY   66  45  45 W17G23    30.27S
RIFLE          LGT RAIN  61  52  72 VRB7G17   30.25F
DELTA          NOT AVBL
NUCLA          CLOUDY    61  46  59 SW10      30.32S
$$

COZ017>023-064>068-272200-
...SOUTHWEST COLORADO...

CITY           SKY/WX    TMP DP  RH WIND       PRES   REMARKS
DURANGO        PTSUNNY   70  44  39 SW9G24    30.31F
CORTEZ         MOSUNNY   68  48  48 CALM      30.28F
PAGOSA SPRINGS PTSUNNY   66  41  40 W9G17     30.36F
TELLURIDE      PTSUNNY   54  43  66 CALM      30.44F
WOLF CREEK PAS CLOUDY    43  39  87 SW20G33   30.57F
$$

COZ009-010-012-014-032>034-037-058>063-272200-
...CENTRAL COLORADO...

CITY           SKY/WX    TMP DP  RH WIND       PRES   REMARKS
ASPEN          PTSUNNY   63  41  44 E7        30.30S
BUENA VISTA    CLOUDY    68  34  29 W21       30.30F
COPPER MTN     PTSUNNY   46  37  71 W13       30.55S
BERTHOUD PASS  FOG       34  34 100 NW14      30.58F VSB<1/4 WCI  24
COTTONWOOD PAS MOSUNNY   61  32  33 W23G35    30.39F
GUNNISON       MOSUNNY   63  39  42 SW14G23   30.34F
KREMMLING      PTSUNNY   70  41  35 W8G20     30.30F
LEADVILLE      MOSUNNY   55  34  45 VRB5      30.40F
MONARCH PASS   PTSUNNY   46  36  66 W17G24    30.66S
SALIDA         MOSUNNY   71  38  30 SW8G22    30.35F
SUNLIGHT       TSTM      43  43 100 CALM      30.51R VSB<1/4
WILKERSON PASS NOT AVBL
$$

COZ069>075-272200-
...SAN LUIS VALLEY/SANGRE DE CRISTO MOUNTAINS...

CITY           SKY/WX    TMP DP  RH WIND       PRES   REMARKS
ALAMOSA        MOSUNNY   76  32  20 SW16G25   30.28F
LA VETA PASS   NOT AVBL
SAGUACHE       CLOUDY    63  45  51 CALM      30.31F
$$

COZ035-036-038>040-272200-
...NORTHERN COLORADO FRONT RANGE...

CITY           SKY/WX    TMP DP  RH WIND       PRES   REMARKS
DENVER INTL AP MOSUNNY   77  55  46 NE6       30.12F
DMNS CITY PARK   N/A     77  54  44 NE12      30.11S
AURORA         PTSUNNY   75  56  51 NE3       30.14F
FRONT RANGE AP NOT AVBL
ERIE MUNI ARPT MOSUNNY   78  51  39 CALM      30.10F
BOULDER MUN AP PTSUNNY   72  54  53 W8        30.13S
CENTENNIAL     PTSUNNY   76  52  43 N8        30.14F
BROOMFIELD     PTSUNNY   77  50  38 N7        30.14F
FORT COLLINS   MOSUNNY   79  55  44 E9        30.10F
LONGMONT       MOSUNNY   77  55  47 N10       30.12F
$$

COZ041-046-047-076>085-087-088-272200-
...PIKES PEAK/PALMER DIVIDE AND SOUTHERN FOOTHILLS...

CITY           SKY/WX    TMP DP  RH WIND       PRES   REMARKS
COLO. SPRINGS  MOSUNNY   78  49  35 VRB3      30.15F
A. F. ACADEMY  MOSUNNY   75  48  38 SE10      30.16F
ELLICOTT       MOSUNNY   79  47  32 S8        30.15F
FALCON         MOSUNNY   77  49  37 S8        30.22S
FORT CARSON    PTSUNNY   79  45  29 NE6       30.12F
LIMON          MOSUNNY   77  54  44 VRB3      30.12F
MONUMENT HILL  SUNNY     70  50  49 N6        30.21F
TRINIDAD       MOSUNNY   78  49  35 SE8       30.14F
$$

COZ042>045-048>051-090-091-272200-
...NORTHEAST COLORADO...

CITY           SKY/WX    TMP DP  RH WIND       PRES   REMARKS
GREELEY ARPT   MOSUNNY   77  57  50 NE17      30.10F
AKRON          PTSUNNY   79  61  53 VRB6      30.08F
BURLINGTON     CLOUDY    77  64  64 S16G24    30.08F
WRAY             N/A     83  62  48 SE17G23   30.03F
STERLING       MOSUNNY   81  64  57 W3        30.04F
HOLYOKE        LGT RAIN  73  68  83 S8        30.06F
FORT MORGAN    MOSUNNY   78  55  45 E6        30.08F
$$

COZ086-089-092>099-272200-
...SOUTHEAST COLORADO...

CITY           SKY/WX    TMP DP  RH WIND       PRES   REMARKS
PUEBLO         SUNNY     86  47  25 S3        30.04F
LA JUNTA       SUNNY     83  53  35 VRB3      30.05F
LAMAR          MOSUNNY   86  58  38 SW8       30.01F
SPRINGFIELD      N/A     83  58  42 SW12G25   30.08F
$$


USA.gov is the U.S. government's official web portal to all federal, state and local government web resources and services.